,,Stat6,,Stat2,,Stat8,,Stat9,,Stat10,,Wind1,,Wind1,
time,status,PA1M_AVG,status,PR1M_SUM,status,RH1M_AVG,status,SR1M_AVG,status,TA1M_AVG,status,W1dAve1m,status,W1sAve1m,
2004-07-06, 00:00:00,VALID,917.888,VALID,0,VALID,100,VALID,-0.101885,VALID,19.3639,VALID,4,VALID,0.688616,
2004-07-06, 00:01:00,VALID,917.876,VALID,0,VALID,100,VALID,-0.118866,VALID,19.3701,VALID,11,VALID,1.15927,
2004-07-06, 00:02:00,VALID,917.88,VALID,0,VALID,100,VALID,-0.0679233,VALID,19.3507,VALID,6,VALID,1.5385,
2004-07-06, 00:03:00,VALID,917.856,VALID,0,VALID,100,VALID,-0.101885,VALID,19.3445,VALID,11,VALID,1.10738,
2004-07-06, 00:04:00,VALID,917.843,VALID,0,VALID,100,VALID,-0.101885,VALID,19.3311,VALID,356,VALID,0.901367,
2004-07-06, 00:05:00,VALID,917.828,VALID,0,VALID,100,VALID,-0.101885,VALID,19.3249,VALID,342,VALID,0.869549,
2004-07-06, 00:06:00,VALID,917.816,VALID,0,VALID,100,VALID,-0.118866,VALID,19.3115,VALID,340,VALID,0.563262,
2004-07-06, 00:07:00,VALID,917.823,VALID,0,VALID,100,VALID,0,VALID,19.3336,VALID,345,VALID,0.677379,
2004-07-06, 00:08:00,VALID,917.805,VALID,0,VALID,100,VALID,-0.0169808,VALID,19.3334,VALID,355,VALID,0.78343,
2004-07-06, 00:09:00,VALID,917.792,VALID,0,VALID,100,VALID,0,VALID,19.3336,VALID,312,VALID,1.00056,
2004-07-06, 00:10:00,VALID,917.774,VALID,0,VALID,100,VALID,0,VALID,19.3009,VALID,8,VALID,0.563643,
2004-07-06, 00:11:00,VALID,917.774,VALID,0,VALID,100,VALID,0,VALID,19.3105,VALID,359,VALID,0.396723,
2004-07-06, 00:12:00,VALID,917.785,VALID,0,VALID,100,VALID,0,VALID,19.3046,VALID,335,VALID,0.736607,
2004-07-06, 00:13:00,VALID,917.804,VALID,0,VALID,100,VALID,0,VALID,19.3043,VALID,343,VALID,0.573438,
2004-07-06, 00:14:00,VALID,917.801,VALID,0,VALID,100,VALID,0,VALID,19.3232,VALID,3,VALID,1.03107,
2004-07-06, 00:15:00,VALID,917.783,VALID,0,VALID,100,VALID,0.0339617,VALID,19.3336,VALID,10,VALID,1.38136,
2004-07-06, 00:16:00,VALID,917.783,VALID,0,VALID,100,VALID,0,VALID,19.3329,VALID,16,VALID,1.59275,
2004-07-06, 00:17:00,VALID,917.778,VALID,0,VALID,100,VALID,0,VALID,19.3528,VALID,20,VALID,1.72247,
2004-07-06, 00:18:00,VALID,917.779,VALID,0,VALID,100,VALID,0,VALID,19.3458,VALID,11,VALID,2.02805,
2004-07-06, 00:19:00,VALID,917.784,VALID,0,VALID,100,VALID,0,VALID,19.3493,VALID,2,VALID,1.41481,
2004-07-06, 00:20:00,VALID,917.758,VALID,0,VALID,100,VALID,0.0339617,VALID,19.3456,VALID,9,VALID,1.52397,
2004-07-06, 00:21:00,VALID,917.759,VALID,0,VALID,100,VALID,-0.0169808,VALID,19.3528,VALID,5,VALID,1.38821,
2004-07-06, 00:22:00,VALID,917.752,VALID,0,VALID,100,VALID,-0.101885,VALID,19.3503,VALID,359,VALID,1.50515,
2004-07-06, 00:23:00,VALID,917.734,VALID,0,VALID,100,VALID,-0.101885,VALID,19.3507,VALID,6,VALID,1.53961,
2004-07-06, 00:24:00,VALID,917.708,VALID,0,VALID,100,VALID,-0.0849042,VALID,19.3438,VALID,14,VALID,2.1149,
2004-07-06, 00:25:00,VALID,917.704,VALID,0,VALID,100,VALID,-0.101885,VALID,19.3443,VALID,1,VALID,1.84909,
2004-07-06, 00:26:00,VALID,917.713,VALID,0,VALID,100,VALID,-0.0509425,VALID,19.3406,VALID,11,VALID,1.30687,
2004-07-06, 00:27:00,VALID,917.698,VALID,0,VALID,100,VALID,-0.0679233,VALID,19.3537,VALID,360,VALID,1.09928,
2004-07-06, 00:28:00,VALID,917.669,VALID,0,VALID,100,VALID,-0.0679233,VALID,19.315,VALID,1,VALID,1.48996,
2004-07-06, 00:29:00,VALID,917.671,VALID,0,VALID,100,VALID,-0.0679233,VALID,19.3115,VALID,3,VALID,1.12695,
2004-07-06, 00:30:00,VALID,917.662,VALID,0,VALID,100,VALID,-0.0849042,VALID,19.3311,VALID,1,VALID,0.928597,
2004-07-06, 00:31:00,VALID,917.654,VALID,0,VALID,100,VALID,-0.101885,VALID,19.3187,VALID,352,VALID,0.746366,
2004-07-06, 00:32:00,VALID,917.651,VALID,0,VALID,100,VALID,-0.0679233,VALID,19.3344,VALID,358,VALID,0.892187,
2004-07-06, 00:33:00,VALID,917.651,VALID,0,VALID,100,VALID,-0.0849042,VALID,19.3053,VALID,9,VALID,1.13463,
2004-07-06, 00:34:00,VALID,917.651,VALID,0,VALID,100,VALID,-0.0679233,VALID,19.3023,VALID,2,VALID,1.33674,
2004-07-06, 00:35:00,VALID,917.658,VALID,0,VALID,100,VALID,-0.0849042,VALID,19.2954,VALID,358,VALID,1.51634,
2004-07-06, 00:36:00,VALID,917.668,VALID,0,VALID,100,VALID,-0.0849042,VALID,19.2792,VALID,1,VALID,1.61737,
2004-07-06, 00:37:00,VALID,917.677,VALID,0,VALID,100,VALID,0,VALID,19.2812,VALID,347,VALID,1.67551,
2004-07-06, 00:38:00,VALID,917.715,VALID,0,VALID,100,VALID,0,VALID,19.2815,VALID,358,VALID,1.35469,
2004-07-06, 00:39:00,VALID,917.709,VALID,0,VALID,100,VALID,0,VALID,19.2815,VALID,348,VALID,1.26016,
2004-07-06, 00:40:00,VALID,917.692,VALID,0,VALID,100,VALID,0,VALID,19.2815,VALID,5,VALID,1.75762,
2004-07-06, 00:41:00,VALID,917.69,VALID,0,VALID,100,VALID,0,VALID,19.2649,VALID,357,VALID,1.43005,
2004-07-06, 00:42:00,VALID,917.674,VALID,0,VALID,100,VALID,-0.0169808,VALID,19.2718,VALID,359,VALID,1.47256,
2004-07-06, 00:43:00,VALID,917.662,VALID,0,VALID,100,VALID,0,VALID,19.2656,VALID,8,VALID,2.06585,
2004-07-06, 00:44:00,VALID,917.643,VALID,0,VALID,100,VALID,0,VALID,19.2812,VALID,1,VALID,1.20778,
2004-07-06, 00:45:00,VALID,917.634,VALID,0,VALID,100,VALID,-0.0169808,VALID,19.2785,VALID,355,VALID,1.48847,
2004-07-06, 00:46:00,VALID,917.628,VALID,0,VALID,100,VALID,0,VALID,19.2651,VALID,346,VALID,0.93608,
2004-07-06, 00:47:00,VALID,917.617,VALID,0,VALID,100,VALID,0,VALID,19.2658,VALID,355,VALID,1.1222,
2004-07-06, 00:48:00,VALID,917.599,VALID,0,VALID,100,VALID,0,VALID,19.272,VALID,5,VALID,1.08464,
2004-07-06, 00:49:00,VALID,917.59,VALID,0,VALID,100,VALID,-0.0169808,VALID,19.2653,VALID,355,VALID,1.27646,
2004-07-06, 00:50:00,VALID,917.553,VALID,0,VALID,100,VALID,0.0169808,VALID,19.239,VALID,356,VALID,1.52289,
2004-07-06, 00:51:00,VALID,917.526,VALID,0,VALID,100,VALID,-0.0169808,VALID,19.243,VALID,8,VALID,1.4916,
2004-07-06, 00:52:00,VALID,917.503,VALID,0,VALID,100,VALID,0,VALID,19.2402,VALID,4,VALID,1.61204,
2004-07-06, 00:53:00,VALID,917.47,VALID,0,VALID,100,VALID,0,VALID,19.2234,VALID,10,VALID,1.3327,
2004-07-06, 00:54:00,VALID,917.446,VALID,0,VALID,100,VALID,0.0169808,VALID,19.2298,VALID,17,VALID,1.08194,
2004-07-06, 00:55:00,VALID,917.426,VALID,0,VALID,100,VALID,0,VALID,19.2527,VALID,14,VALID,1.1548,
2004-07-06, 00:56:00,VALID,917.398,VALID,0,VALID,100,VALID,0.0339617,VALID,19.2395,VALID,7,VALID,1.58438,
2004-07-06, 00:57:00,VALID,917.384,VALID,0,VALID,100,VALID,0.0169808,VALID,19.2204,VALID,3,VALID,1.0878,
2004-07-06, 00:58:00,VALID,917.361,VALID,0,VALID,100,VALID,0,VALID,19.2042,VALID,11,VALID,1.77773,
2004-07-06, 00:59:00,VALID,917.347,VALID,0,VALID,100,VALID,0.0169808,VALID,19.1975,VALID,8,VALID,1.5186,
2004-07-06, 01:00:00,VALID,917.325,VALID,0,VALID,100,VALID,0,VALID,19.2013,VALID,2,VALID,1.01322,
2004-07-06, 01:01:00,VALID,917.292,VALID,0,VALID,100,VALID,0,VALID,19.1749,VALID,355,VALID,1.13832,
2004-07-06, 01:02:00,VALID,917.26,VALID,0,VALID,100,VALID,-0.0169808,VALID,19.1819,VALID,358,VALID,0.430233,
2004-07-06, 01:03:00,VALID,917.237,VALID,0,VALID,100,VALID,0.0169808,VALID,19.1921,VALID,355,VALID,0.0820313,
2004-07-06, 01:04:00,VALID,917.218,VALID,0,VALID,100,VALID,0,VALID,19.162,VALID,12,VALID,0.542791,
2004-07-06, 01:05:00,VALID,917.226,VALID,0,VALID,100,VALID,0,VALID,19.1623,VALID,26,VALID,0.975472,
2004-07-06, 01:06:00,VALID,917.227,VALID,0,VALID,100,VALID,0,VALID,19.172,VALID,22,VALID,0.73601,
2004-07-06, 01:07:00,VALID,917.238,VALID,0,VALID,100,VALID,-0.118866,VALID,19.1925,VALID,18,VALID,1.04135,
2004-07-06, 01:08:00,VALID,917.27,VALID,0,VALID,100,VALID,-0.0849042,VALID,19.2092,VALID,17,VALID,0.455305,
2004-07-06, 01:09:00,VALID,917.258,VALID,0,VALID,100,VALID,-0.118866,VALID,19.2025,VALID,22,VALID,0.669876,
2004-07-06, 01:10:00,VALID,917.254,VALID,0,VALID,100,VALID,-0.101885,VALID,19.1896,VALID,6,VALID,1.11211,
2004-07-06, 01:11:00,VALID,917.252,VALID,0,VALID,100,VALID,-0.101885,VALID,19.1573,VALID,25,VALID,1.21824,
2004-07-06, 01:12:00,VALID,917.251,VALID,0,VALID,100,VALID,-0.0679233,VALID,19.157,VALID,10,VALID,1.33789,
2004-07-06, 01:13:00,VALID,917.235,VALID,0,VALID,100,VALID,-0.101885,VALID,19.1446,VALID,27,VALID,1.34819,
2004-07-06, 01:14:00,VALID,917.209,VALID,0,VALID,100,VALID,-0.101885,VALID,19.1536,VALID,15,VALID,1.30415,
2004-07-06, 01:15:00,VALID,917.198,VALID,0,VALID,100,VALID,-0.101885,VALID,19.1377,VALID,25,VALID,1.4959,
2004-07-06, 01:16:00,VALID,917.202,VALID,0,VALID,100,VALID,-0.101885,VALID,19.1573,VALID,12,VALID,1.62742,
2004-07-06, 01:17:00,VALID,917.212,VALID,0,VALID,100,VALID,-0.101885,VALID,19.1406,VALID,10,VALID,1.08574,
2004-07-06, 01:18:00,VALID,917.208,VALID,0,VALID,100,VALID,-0.0849042,VALID,19.1605,VALID,16,VALID,1.0142,
2004-07-06, 01:19:00,VALID,917.214,VALID,0,VALID,100,VALID,-0.101885,VALID,19.1607,VALID,31,VALID,1.71503,
2004-07-06, 01:20:00,VALID,917.224,VALID,0,VALID,100,VALID,-0.101885,VALID,19.1699,VALID,9,VALID,1.09803,
2004-07-06, 01:21:00,VALID,917.202,VALID,0,VALID,100,VALID,-0.0679233,VALID,19.1369,VALID,334,VALID,1.07465,
2004-07-06, 01:22:00,VALID,917.2,VALID,0,VALID,100,VALID,-0.0169808,VALID,19.1275,VALID,338,VALID,1.11105,
2004-07-06, 01:23:00,VALID,917.176,VALID,0,VALID,100,VALID,-0.0679233,VALID,19.1339,VALID,1,VALID,1.10521,
2004-07-06, 01:24:00,VALID,917.149,VALID,0,VALID,100,VALID,-0.0339617,VALID,19.1441,VALID,8,VALID,1.23568,
2004-07-06, 01:25:00,VALID,917.154,VALID,0,VALID,100,VALID,-0.0339617,VALID,19.1369,VALID,312,VALID,0.670873,
2004-07-06, 01:26:00,VALID,917.168,VALID,0,VALID,100,VALID,-0.0849042,VALID,19.121,VALID,311,VALID,0.717226,
2004-07-06, 01:27:00,VALID,917.172,VALID,0,VALID,100,VALID,-0.0509425,VALID,19.1051,VALID,334,VALID,0.970424,
2004-07-06, 01:28:00,VALID,917.207,VALID,0,VALID,100,VALID,-0.0339617,VALID,19.0987,VALID,9,VALID,1.48419,
2004-07-06, 01:29:00,VALID,917.213,VALID,0,VALID,100,VALID,-0.0679233,VALID,19.1113,VALID,356,VALID,1.39792,
2004-07-06, 01:30:00,VALID,917.213,VALID,0,VALID,100,VALID,-0.0339617,VALID,19.0952,VALID,359,VALID,0.946837,
2004-07-06, 01:31:00,VALID,917.224,VALID,0,VALID,100,VALID,0,VALID,19.0982,VALID,8,VALID,1.26308,
2004-07-06, 01:32:00,VALID,917.211,VALID,0.2,VALID,100,VALID,-0.0339617,VALID,19.0952,VALID,334,VALID,1.25018,
2004-07-06, 01:33:00,VALID,917.203,VALID,0,VALID,100,VALID,-0.0509425,VALID,19.0761,VALID,2,VALID,1.02096,
2004-07-06, 01:34:00,VALID,917.202,VALID,0,VALID,100,VALID,-0.0509425,VALID,19.0753,VALID,4,VALID,1.29474,
2004-07-06, 01:35:00,VALID,917.199,VALID,0,VALID,100,VALID,-0.0339617,VALID,19.0659,VALID,357,VALID,0.988376,
2004-07-06, 01:36:00,VALID,917.182,VALID,0,VALID,100,VALID,0,VALID,19.0661,VALID,5,VALID,1.24126,
2004-07-06, 01:37:00,VALID,917.2,VALID,0,VALID,100,VALID,0,VALID,19.0791,VALID,10,VALID,0.773264,
2004-07-06, 01:38:00,VALID,917.195,VALID,0,VALID,100,VALID,-0.0339617,VALID,19.0664,VALID,317,VALID,0.471227,
2004-07-06, 01:39:00,VALID,917.198,VALID,0,VALID,100,VALID,-0.0339617,VALID,19.0435,VALID,295,VALID,0.128711,
2004-07-06, 01:40:00,VALID,917.185,VALID,0,VALID,100,VALID,-0.0169808,VALID,19.0438,VALID,324,VALID,0.422828,
2004-07-06, 01:41:00,VALID,917.202,VALID,0,VALID,100,VALID,-0.0679233,VALID,19.0403,VALID,32,VALID,0.813408,
2004-07-06, 01:42:00,VALID,917.214,VALID,0,VALID,100,VALID,0,VALID,19.0539,VALID,39,VALID,0.68821,
2004-07-06, 01:43:00,VALID,917.223,VALID,0,VALID,100,VALID,-0.0339617,VALID,19.0242,VALID,1,VALID,1.37624,
2004-07-06, 01:44:00,VALID,917.228,VALID,0,VALID,100,VALID,-0.0339617,VALID,19.0537,VALID,3,VALID,1.16315,
2004-07-06, 01:45:00,VALID,917.23,VALID,0,VALID,100,VALID,-0.0339617,VALID,19.0666,VALID,20,VALID,1.23228,
2004-07-06, 01:46:00,VALID,917.214,VALID,0,VALID,100,VALID,-0.0169808,VALID,19.0599,VALID,30,VALID,1.15699,
2004-07-06, 01:47:00,VALID,917.205,VALID,0,VALID,100,VALID,-0.0169808,VALID,19.0696,VALID,25,VALID,1.05434,
2004-07-06, 01:48:00,VALID,917.202,VALID,0,VALID,100,VALID,-0.0509425,VALID,19.0731,VALID,1,VALID,1.02058,
2004-07-06, 01:49:00,VALID,917.192,VALID,0,VALID,100,VALID,0,VALID,19.0565,VALID,356,VALID,0.958705,
2004-07-06, 01:50:00,VALID,917.158,VALID,0,VALID,100,VALID,-0.0169808,VALID,19.0659,VALID,21,VALID,0.982067,
2004-07-06, 01:51:00,VALID,917.156,VALID,0,VALID,100,VALID,0,VALID,19.0691,VALID,16,VALID,1.21112,
2004-07-06, 01:52:00,VALID,917.166,VALID,0,VALID,100,VALID,-0.0679233,VALID,19.0798,VALID,11,VALID,1.33194,
2004-07-06, 01:53:00,VALID,917.153,VALID,0,VALID,100,VALID,-0.0339617,VALID,19.0887,VALID,16,VALID,0.989757,
2004-07-06, 01:54:00,VALID,917.143,VALID,0,VALID,100,VALID,-0.0339617,VALID,19.1054,VALID,20,VALID,1.26302,
2004-07-06, 01:55:00,VALID,917.11,VALID,0,VALID,100,VALID,-0.0169808,VALID,19.1081,VALID,16,VALID,1.13141,
2004-07-06, 01:56:00,VALID,917.109,VALID,0,VALID,100,VALID,-0.0509425,VALID,19.1051,VALID,20,VALID,1.31871,
2004-07-06, 01:57:00,VALID,917.076,VALID,0,VALID,100,VALID,-0.0339617,VALID,19.0991,VALID,17,VALID,1.66525,
2004-07-06, 01:58:00,VALID,917.091,VALID,0,VALID,100,VALID,-0.0169808,VALID,19.0922,VALID,14,VALID,1.31577,
2004-07-06, 01:59:00,VALID,917.086,VALID,0,VALID,100,VALID,0,VALID,19.0922,VALID,2,VALID,1.15662,
2004-07-06, 02:00:00,VALID,917.081,VALID,0,VALID,100,VALID,-0.0169808,VALID,19.086,VALID,7,VALID,0.902249,
2004-07-06, 02:01:00,VALID,917.066,VALID,0,VALID,100,VALID,-0.0339617,VALID,19.0726,VALID,8,VALID,1.0692,
2004-07-06, 02:02:00,VALID,917.047,VALID,0,VALID,100,VALID,0,VALID,19.0795,VALID,18,VALID,1.46875,
2004-07-06, 02:03:00,VALID,917.025,VALID,0,VALID,100,VALID,-0.0169808,VALID,19.0728,VALID,24,VALID,1.96361,
2004-07-06, 02:04:00,VALID,917.027,VALID,0,VALID,100,VALID,-0.0169808,VALID,19.0791,VALID,11,VALID,1.23347,
2004-07-06, 02:05:00,VALID,917.009,VALID,0,VALID,100,VALID,-0.0169808,VALID,19.0825,VALID,12,VALID,1.45406,
2004-07-06, 02:06:00,VALID,916.993,VALID,0,VALID,100,VALID,-0.0169808,VALID,19.089,VALID,19,VALID,1.16815,
2004-07-06, 02:07:00,VALID,916.971,VALID,0,VALID,100,VALID,0,VALID,19.095,VALID,9,VALID,1.16104,
2004-07-06, 02:08:00,VALID,916.958,VALID,0,VALID,100,VALID,0,VALID,19.1017,VALID,18,VALID,0.826982,
2004-07-06, 02:09:00,VALID,916.978,VALID,0,VALID,100,VALID,0,VALID,19.0984,VALID,13,VALID,0.661701,
2004-07-06, 02:10:00,VALID,916.99,VALID,0,VALID,100,VALID,0,VALID,19.1044,VALID,13,VALID,0.845881,
2004-07-06, 02:11:00,VALID,916.996,VALID,0,VALID,100,VALID,-0.0169808,VALID,19.1111,VALID,22,VALID,0.978924,
2004-07-06, 02:12:00,VALID,917.017,VALID,0,VALID,100,VALID,0.0169808,VALID,19.1109,VALID,12,VALID,0.940173,
2004-07-06, 02:13:00,VALID,916.998,VALID,0,VALID,100,VALID,0,VALID,19.0984,VALID,21,VALID,1.54859,
2004-07-06, 02:14:00,VALID,916.994,VALID,0,VALID,100,VALID,0,VALID,19.0751,VALID,21,VALID,1.6311,
2004-07-06, 02:15:00,VALID,916.984,VALID,0,VALID,100,VALID,0,VALID,19.088,VALID,10,VALID,1.09338,
2004-07-06, 02:16:00,VALID,916.963,VALID,0,VALID,100,VALID,0,VALID,19.1081,VALID,12,VALID,1.19105,
2004-07-06, 02:17:00,VALID,916.946,VALID,0,VALID,100,VALID,0.0169808,VALID,19.1017,VALID,9,VALID,1.34539,
2004-07-06, 02:18:00,VALID,916.927,VALID,0,VALID,100,VALID,0.0169808,VALID,19.0887,VALID,10,VALID,1.54868,
2004-07-06, 02:19:00,VALID,916.882,VALID,0,VALID,100,VALID,0,VALID,19.0791,VALID,11,VALID,1.44048,
2004-07-06, 02:20:00,VALID,916.853,VALID,0,VALID,100,VALID,0,VALID,19.0885,VALID,17,VALID,0.91266,
2004-07-06, 02:21:00,VALID,916.832,VALID,0,VALID,100,VALID,-0.0339617,VALID,19.0917,VALID,36,VALID,1.04453,
2004-07-06, 02:22:00,VALID,916.804,VALID,0,VALID,100,VALID,-0.101885,VALID,19.0763,VALID,49,VALID,0.74657,
2004-07-06, 02:23:00,VALID,916.794,VALID,0,VALID,100,VALID,-0.101885,VALID,19.0865,VALID,35,VALID,0.467076,
2004-07-06, 02:24:00,VALID,916.793,VALID,0,VALID,100,VALID,-0.101885,VALID,19.1066,VALID,30,VALID,0.409489,
2004-07-06, 02:25:00,VALID,916.798,VALID,0,VALID,100,VALID,-0.101885,VALID,19.0964,VALID,30,VALID,0.303052,
2004-07-06, 02:26:00,VALID,916.779,VALID,0,VALID,100,VALID,-0.0849042,VALID,19.0932,VALID,30,VALID,0.109557,
2004-07-06, 02:27:00,VALID,916.755,VALID,0,VALID,100,VALID,-0.0849042,VALID,19.0865,VALID,30,VALID,0.174538,
2004-07-06, 02:28:00,VALID,916.719,VALID,0,VALID,100,VALID,-0.101885,VALID,19.0701,VALID,30,VALID,0,
2004-07-06, 02:29:00,VALID,916.664,VALID,0,VALID,100,VALID,-0.101885,VALID,19.0669,VALID,30,VALID,0,
2004-07-06, 02:30:00,VALID,916.628,VALID,0,VALID,100,VALID,-0.0509425,VALID,19.0636,VALID,30,VALID,0.153088,
2004-07-06, 02:31:00,VALID,916.572,VALID,0,VALID,100,VALID,-0.101885,VALID,19.0445,VALID,326,VALID,0.809549,
2004-07-06, 02:32:00,VALID,916.537,VALID,0,VALID,100,VALID,-0.0679233,VALID,19.0482,VALID,317,VALID,0.650868,
2004-07-06, 02:33:00,VALID,916.505,VALID,0,VALID,100,VALID,-0.0679233,VALID,19.0482,VALID,335,VALID,0.54375,
2004-07-06, 02:34:00,VALID,916.494,VALID,0,VALID,100,VALID,-0.0849042,VALID,19.0318,VALID,336,VALID,0.648793,
2004-07-06, 02:35:00,VALID,916.489,VALID,0,VALID,100,VALID,-0.0849042,VALID,19.0127,VALID,341,VALID,0.526344,
2004-07-06, 02:36:00,VALID,916.518,VALID,0,VALID,100,VALID,-0.0849042,VALID,19.003,VALID,3,VALID,0.7766,
2004-07-06, 02:37:00,VALID,916.529,VALID,0,VALID,100,VALID,-0.0849042,VALID,18.9901,VALID,10,VALID,0.619549,
2004-07-06, 02:38:00,VALID,916.541,VALID,0,VALID,100,VALID,-0.101885,VALID,18.9871,VALID,343,VALID,0.584302,
2004-07-06, 02:39:00,VALID,916.534,VALID,0,VALID,100,VALID,-0.101885,VALID,18.9675,VALID,357,VALID,0.561967,
2004-07-06, 02:40:00,VALID,916.513,VALID,0,VALID,100,VALID,-0.118866,VALID,18.9603,VALID,358,VALID,0.208079,
2004-07-06, 02:41:00,VALID,916.503,VALID,0,VALID,100,VALID,-0.101885,VALID,18.964,VALID,358,VALID,0.0417878,
2004-07-06, 02:42:00,VALID,916.488,VALID,0,VALID,100,VALID,-0.101885,VALID,18.9608,VALID,353,VALID,0.384629,
2004-07-06, 02:43:00,VALID,916.469,VALID,0,VALID,100,VALID,-0.101885,VALID,18.9387,VALID,349,VALID,0.83125,
2004-07-06, 02:44:00,VALID,916.463,VALID,0,VALID,100,VALID,-0.101885,VALID,18.9313,VALID,351,VALID,0.882457,
2004-07-06, 02:45:00,VALID,916.473,VALID,0,VALID,100,VALID,-0.101885,VALID,18.9414,VALID,347,VALID,0.714367,
2004-07-06, 02:46:00,VALID,916.498,VALID,0,VALID,100,VALID,-0.101885,VALID,18.9608,VALID,347,VALID,0.520508,
2004-07-06, 02:47:00,VALID,916.517,VALID,0,VALID,100,VALID,-0.101885,VALID,18.9476,VALID,347,VALID,0.144345,
2004-07-06, 02:48:00,VALID,916.561,VALID,0,VALID,100,VALID,-0.101885,VALID,18.9481,VALID,347,VALID,0,
2004-07-06, 02:49:00,VALID,916.58,VALID,0,VALID,100,VALID,-0.101885,VALID,18.9576,VALID,347,VALID,0,
2004-07-06, 02:50:00,VALID,916.607,VALID,0,VALID,100,VALID,-0.101885,VALID,18.9742,VALID,347,VALID,0.00390625,
2004-07-06, 02:51:00,VALID,916.635,VALID,0,VALID,100,VALID,-0.0849042,VALID,18.9767,VALID,351,VALID,0.184261,
2004-07-06, 02:52:00,VALID,916.65,VALID,0,VALID,100,VALID,0.0339617,VALID,18.9656,VALID,37,VALID,0.310014,
2004-07-06, 02:53:00,VALID,916.639,VALID,0,VALID,100,VALID,0.0509425,VALID,18.9497,VALID,25,VALID,0.847747,
2004-07-06, 02:54:00,VALID,916.622,VALID,0,VALID,100,VALID,0,VALID,18.9631,VALID,1,VALID,0.835392,
2004-07-06, 02:55:00,VALID,916.612,VALID,0,VALID,100,VALID,0,VALID,18.9695,VALID,353,VALID,0.65189,
2004-07-06, 02:56:00,VALID,916.594,VALID,0,VALID,100,VALID,0,VALID,18.9725,VALID,2,VALID,0.457317,
2004-07-06, 02:57:00,VALID,916.58,VALID,0,VALID,100,VALID,0.0169808,VALID,18.9822,VALID,358,VALID,0.927734,
2004-07-06, 02:58:00,VALID,916.573,VALID,0,VALID,100,VALID,0.0169808,VALID,18.9787,VALID,359,VALID,0.722284,
2004-07-06, 02:59:00,VALID,916.579,VALID,0.2,VALID,100,VALID,0,VALID,18.9755,VALID,25,VALID,0.652902,
2004-07-06, 03:00:00,VALID,916.572,VALID,0,VALID,100,VALID,-0.0339617,VALID,18.982,VALID,24,VALID,0.364281,
2004-07-06, 03:01:00,VALID,916.586,VALID,0,VALID,100,VALID,-0.0169808,VALID,18.9757,VALID,35,VALID,0.403706,
2004-07-06, 03:02:00,VALID,916.624,VALID,0,VALID,100,VALID,0.0169808,VALID,18.9824,VALID,54,VALID,0.469494,
2004-07-06, 03:03:00,VALID,916.671,VALID,0,VALID,100,VALID,0,VALID,18.9628,VALID,54,VALID,0.523624,
2004-07-06, 03:04:00,VALID,916.7,VALID,0,VALID,100,VALID,0,VALID,18.9564,VALID,57,VALID,0.538517,
2004-07-06, 03:05:00,VALID,916.733,VALID,0,VALID,100,VALID,0.0339617,VALID,18.9559,VALID,52,VALID,0.704545,
2004-07-06, 03:06:00,VALID,916.759,VALID,0,VALID,100,VALID,0.0169808,VALID,18.9785,VALID,45,VALID,0.821332,
2004-07-06, 03:07:00,VALID,916.763,VALID,0,VALID,100,VALID,-0.0169808,VALID,18.9757,VALID,35,VALID,0.800495,
2004-07-06, 03:08:00,VALID,916.774,VALID,0,VALID,100,VALID,0,VALID,18.9631,VALID,33,VALID,0.638445,
2004-07-06, 03:09:00,VALID,916.754,VALID,0,VALID,100,VALID,-0.0339617,VALID,18.9497,VALID,33,VALID,0.515434,
2004-07-06, 03:10:00,VALID,916.74,VALID,0,VALID,100,VALID,-0.0169808,VALID,18.9464,VALID,34,VALID,0.476181,
2004-07-06, 03:11:00,VALID,916.729,VALID,0,VALID,100,VALID,-0.0339617,VALID,18.9598,VALID,39,VALID,0.452172,
2004-07-06, 03:12:00,VALID,916.725,VALID,0.2,VALID,100,VALID,-0.0509425,VALID,18.9402,VALID,52,VALID,0.566778,
2004-07-06, 03:13:00,VALID,916.727,VALID,0,VALID,100,VALID,-0.0339617,VALID,18.9213,VALID,84,VALID,0.717842,
2004-07-06, 03:14:00,VALID,916.758,VALID,0,VALID,100,VALID,-0.0169808,VALID,18.9075,VALID,85,VALID,0.742969,
2004-07-06, 03:15:00,VALID,916.772,VALID,0,VALID,100,VALID,-0.0339617,VALID,18.9211,VALID,59,VALID,0.960938,
2004-07-06, 03:16:00,VALID,916.795,VALID,0,VALID,100,VALID,-0.0169808,VALID,18.9303,VALID,42,VALID,1.10417,
2004-07-06, 03:17:00,VALID,916.821,VALID,0,VALID,100,VALID,-0.0169808,VALID,18.94,VALID,40,VALID,1.1332,
2004-07-06, 03:18:00,VALID,916.841,VALID,0,VALID,100,VALID,-0.0339617,VALID,18.9506,VALID,44,VALID,1.16528,
2004-07-06, 03:19:00,VALID,916.85,VALID,0,VALID,100,VALID,-0.0169808,VALID,18.937,VALID,62,VALID,1.14416,
2004-07-06, 03:20:00,VALID,916.845,VALID,0,VALID,100,VALID,-0.0169808,VALID,18.9342,VALID,52,VALID,1.26669,
2004-07-06, 03:21:00,VALID,916.854,VALID,0,VALID,100,VALID,-0.0679233,VALID,18.9211,VALID,61,VALID,1.31831,
2004-07-06, 03:22:00,VALID,916.842,VALID,0,VALID,100,VALID,0.0679233,VALID,18.9194,VALID,52,VALID,1.30308,
2004-07-06, 03:23:00,VALID,916.827,VALID,0,VALID,100,VALID,0.0509425,VALID,18.9261,VALID,49,VALID,1.23419,
2004-07-06, 03:24:00,VALID,916.821,VALID,0,VALID,100,VALID,0.101885,VALID,18.9256,VALID,39,VALID,1.13672,
2004-07-06, 03:25:00,VALID,916.806,VALID,0,VALID,100,VALID,0.0849042,VALID,18.9457,VALID,50,VALID,1.26616,
2004-07-06, 03:26:00,VALID,916.806,VALID,0,VALID,100,VALID,0.0509425,VALID,18.9455,VALID,49,VALID,0.875372,
2004-07-06, 03:27:00,VALID,916.806,VALID,0,VALID,100,VALID,0.0679233,VALID,18.9522,VALID,74,VALID,0.917696,
2004-07-06, 03:28:00,VALID,916.798,VALID,0,VALID,100,VALID,0.0849042,VALID,18.9485,VALID,73,VALID,0.806076,
2004-07-06, 03:29:00,VALID,916.797,VALID,0,VALID,100,VALID,0.0849042,VALID,18.9455,VALID,86,VALID,0.505382,
2004-07-06, 03:30:00,VALID,916.799,VALID,0,VALID,100,VALID,0.0509425,VALID,18.9356,VALID,98,VALID,0.429306,
2004-07-06, 03:31:00,VALID,916.784,VALID,0.2,VALID,100,VALID,0.0849042,VALID,18.9423,VALID,120,VALID,0.670641,
2004-07-06, 03:32:00,VALID,916.78,VALID,0,VALID,100,VALID,0.0509425,VALID,18.9453,VALID,159,VALID,0.524368,
2004-07-06, 03:33:00,VALID,916.772,VALID,0,VALID,100,VALID,0.0679233,VALID,18.9418,VALID,149,VALID,0.681108,
2004-07-06, 03:34:00,VALID,916.768,VALID,0,VALID,100,VALID,0.0679233,VALID,18.9586,VALID,143,VALID,0.734947,
2004-07-06, 03:35:00,VALID,916.753,VALID,0,VALID,100,VALID,0.0339617,VALID,18.9586,VALID,144,VALID,0.646439,
2004-07-06, 03:36:00,VALID,916.766,VALID,0.2,VALID,100,VALID,0.0509425,VALID,18.9554,VALID,146,VALID,0.359885,
2004-07-06, 03:37:00,VALID,916.754,VALID,0,VALID,100,VALID,-0.0339617,VALID,18.9728,VALID,151,VALID,0.595486,
2004-07-06, 03:38:00,VALID,916.766,VALID,0,VALID,100,VALID,-0.0679233,VALID,18.9827,VALID,136,VALID,0.603468,
2004-07-06, 03:39:00,VALID,916.783,VALID,0.2,VALID,100,VALID,-0.0169808,VALID,18.9891,VALID,133,VALID,0.701672,
2004-07-06, 03:40:00,VALID,916.803,VALID,0,VALID,100,VALID,-0.0169808,VALID,18.9889,VALID,119,VALID,0.877976,
2004-07-06, 03:41:00,VALID,916.807,VALID,0,VALID,100,VALID,-0.0339617,VALID,18.9857,VALID,115,VALID,0.809956,
2004-07-06, 03:42:00,VALID,916.78,VALID,0.2,VALID,100,VALID,-0.0509425,VALID,18.976,VALID,110,VALID,0.581214,